Погода в Томске

Погода в Томске : погода сейчас, прогноз погоды и архив. Всё, что Вы хотите узнать о погоде в Томске!

Хотите узнать прогноз погоды в Томске? Тогда Вам сюда: Погода в Томске

Поиск расширенной информации на нашем сайте:

Другие новости

Новости СМИ2

Главная страница сайта

Новости сайта

02.10.2013

Напоминаем, что на нашем новом сайте вы можете получить высокодетализированные прогнозы погоды по пунктам России, СНГ и мира (включающие важные для авиации метеовеличины, такие как направление и скорость ветра, видимость, явления погоды, количество и форма облачности, нижняя и верхняя граница облачности), а также ознакомиться с разнообразными материалами по авиационной метеорологии и подборкой полезных ссылок на эту тему.

Сайт Метеоцентр.Азия посвящён разработке технологий оптимизации авиаметеорологического обслуживания, включая проектирование и перспективное создание нескольких автоматизированных авиаметеорологических систем:
- система выпуска высокодетальных прогностических карт явлений погоды для нижнего воздушного пространства по России и ближнему зарубежью;
- система верификации прогнозов TAF (выпускаемых синоптиками официальных АМСГ РФ и ближнего зарубежья) и AUTOTAF (выпускаемых сайтом Метеоцентр.Азия) - выявление ошибок, онлайн-сопоставление с фактической погодой METAR, автоматическое внесение коррективов в прогнозы при резком отклонении фактической погоды от прогноза, подсчёт оправдываемости прогнозов по элементам и в целом;
- система обработки, анализа и отображения авиаметеорологической информации для применения провайдерами метеорологической информации.

Рекомендуем: На сайте sunny-nn.ru солнечный жилой комплекс.

Погода в Томске - сегодня

Время (UTC), дата Ветер
(°,м/с) 
Видим.   Явления Облачность Т
(°С)
Тd
(°С)
f(%) Тe
(°С)
Pmin
(гПа)
dP
(гПа)
Po
(мм)
O2
(г/м3)
Тmin Tmax R s Состояние
почвы
18 27.03.17 190 (Ю) 20000 м  {дождь}  10/10 330 м 
[Sc]
+0.3 -1.1 90 +1  1019.5  2.3  752  303           
21 27.03.17 190 (Ю) 20000 м    10/10 300 м 
[Sc]
-0.5 -2.4 87 1021.6  753  304           
00 28.03.17 200 (Ю) 20000 м    10/10 300 м 
[Sc]
-0.5 -1.9 90 1022.2  0.6  753  304  -0.6    0.1  75  равномерный
мокрый или
старый снег
100% 
03 28.03.17 160 (Ю) 20000 м  в посл. час ливневой снег  10/10 210 м 
[Sc]
+0.5 -0.6 92 +1  1022.5  0.3  754  303           
06 28.03.17 160 (Ю) 20000 м  {ливн. осадки}  10/10 210 м 
[Sc]
+1.8 +0.2 89 +3  1022.3  -0.1  754  302           
09 28.03.17 150 (ЮВ) 20000 м    10/10 330 м 
[Sc]
+3.5 +0.2 79 +3  1021.1  -1  753  299           
12 28.03.17 140 (ЮВ) 20000 м    10/0 средняя, верхняя 
[Ac As|Ci fib]
+3.3 -0.1 78 +4  1019.6  -1.5  752  299    +4.5  0.0     
15 28.03.17 140 (ЮВ) 20000 м    10/3 600 м средняя 
[Sc|As op]
+4 -0.6 72 +3  1018.2  -1.3  751  298           
18 28.03.17 160 (Ю) 1{10}  20000 м    10/8 1080 м средняя 
[Sc|As op]
+2.7 -1.3 75 +3  1017.3  -1  750  299           
21 28.03.17 160 (Ю) 20000 м  {дождь}  10/6 600 м средняя 
[Sc|As op]
+2.3 -2 73 +3  1016.5  -0.9  749  300           
00 29.03.17 150 (ЮВ) 20000 м  {дождь}  10/0 верхняя 
[Ci fib]
+2.2 -2.2 73 +2  1015.3  -1.1  749  299  +1.5    0.0  70  равномерный
мокрый или
старый снег
100% 
03 29.03.17 160 (Ю) 20000 м    10/0 верхняя 
[Ci fib]
+4 -1.7 66 +4  1014.1  -1.1  748  297           
06 29.03.17 160 (Ю) 2{10}  20000 м    10/0 средняя, верхняя 
[Ac trans|Cs]
+6.2 -1.4 58 +6  1011.9  -2  746  294           
09 29.03.17 160 (Ю) 20000 м    10/0 верхняя 
[Ci fib]
+4 -1.7 66 +4  1014.1  -1.1  748  297           
12 29.03.17 160 (Ю) 20000 м    10/0 средняя, верхняя 
[As op|Ci fib]
+6.5 -1.1 58 +7  1008.7  -0.9  744  293    +8.8       
15 29.03.17 тихо ()   н/о    н/о 
+3.6 -0.4 75 +4  1011.3  2.4  746  297           
18 29.03.17 тихо ()   20000 м    10/4 600 м средняя 
[Sc diur, vesp|As op]
+2.2 -0.4 83 +2  1013.4  747  299           
21 29.03.17 тихо ()   20000 м    10/0 средняя 
[As op]
+2.3 -0.3 83 +2  1013.9  0.5  747  299           
00 30.03.17 тихо ()   20000 м    10/0 средняя 
[As op]
+1.5 -0.6 86 +2  1013.4  -0.5  747  299  +1.5      67  равномерный
мокрый или
старый снег
100% 
03 30.03.17 070 (В) 20000 м    10/10 210 м 
[Sc]
+2.6 +1.5 92 +3  1011.5  -1.9  746  297           
06 30.03.17 130 (ЮВ) 20000 м    10/9 540 м средняя 
[Sc|Ac und]
+5.8 +1.9 76 +6  1008.5  -2.7  744  293           
09 30.03.17 140 (ЮВ) 20000 м  слаб. дождь  10/10 840 м 
[Sc]
+5.8 +2.9 82 +7  1004.5  -3.9  741  292           
12 30.03.17 140 (ЮВ) 20000 м  {дождь}  10/8 700 м средняя 
[Sc|As op]
+7.7 -0.2 57 +8  1000.1  -4.3  737  289    +8.1     
15 30.03.17 210 (ЮЗ) 20000 м  слаб. ливневой дождь  10/8 540 м кучево-дожд., средняя 
[Cb cap|Ac trans]
+3.6 +1.8 88 +3  999.3  -0.9  737  293           
18 30.03.17 200 (Ю) 20000 м  {ливн. осадки}  10/6 870 м средняя 
[Sc|Ac trans]
+1.8 +0.4 90 1003  3.4  739  296           
Время (UTC), дата Ветер
(°,м/с) 
Видим.   Явления Облачность Т
(°С)
Тd
(°С)
f(%) Тe
(°С)
Pmin
(гПа)
dP
(гПа)
Po
(мм)
O2
(г/м3)
Тmin Tmax R s Состояние
почвы

Для получения пояснительной информации подведите курсор к названию столбца.

ПОГОДА в Томске - архив

Всё, что Вы хотите узнать о погоде в Томске - удобно и подробно!

Выберите нужную дату (начиная с 1 января 2015* года) и нажмите кнопку "Найти".
Будут отображены архивные сводки погоды по пункту Томск, начиная с указанной даты.


Отображать данные в формате CSV (для использования в таблицах Excel)


Внимание! Наш архив погоды предназначен исключительно для личного некоммерческого использования в познавательных целях. Если Вам необходимы официальные справки о состоянии погоды (для производственных, юридических, коммерческих и т.п. целей), обращайтесь в органы Росгидромета.

*Примечание: данная дата относится к архиву по метеостанциям СССР (Россия, СНГ, Балтия).
Архив по метеостанциям Зарубежной Европы и Азии (кроме Китая) хранится 10 дней, по другим регионам земного шара (Китай, Африка, Америка, Австралия, Океания) - 1 день.

Томск - район местоположения метеостанции


Название, широта, долгота, высота метеостанции:
Томск 56.5°ш. 84.9°д. 139 м над ур. моря [Российская Федерация]

Дополнительная информация

В oтличие oт бoльшинства пoгoдных сайтoв мы публикуем пoдрoбную метеoинфoрмацию в детальнoм прoфессиoнальнoм фoрмате.

Характеристики температуры и влажнoсти вoздуха измеряются на высoте 2 м в тени вдали oт зданий и деревьев.
Скoрoсть ветра измеряется на высoте 10 м (на урoвне рoста челoвека скoрoсть ветра ниже в 1.5-2 раза). Если метеoстанция нахoдится в гoрoде или в лесу, тo скoрoсть ветра занижена на 2-4 м/с пo сравнению с oткрытым местoм. Скoрoсть ветра над акватoриями крупных рек и oзёр, а также на вершинах хoлмoв на 2-5 м/с выше, чем в oбычных услoвиях.
Атмoсфернoе давление в разных тoчках местнoсти мoжет значительнo oтличаться oт давления на метеoстанции, в зависимoсти oт услoвий рельефа (при пoдъёме на 10 м давление пoнижается примернo на 1 мм рт.ст.).